Wind_Speed
12 10 10 10 10 9 9 9 9 9 10 11 13 14 15 15 14 13 12 10 9 8 7 8 8 7 9 8 6 4 3 3 4 6 8 9 8 6 4 4 5 6 6 5 4 4 5 4 4 3 5 8 10 10 9 9 11 14 13 13 12 11 12 9 5 6 11 13 14 15 15 15 15 13 14 15 15 16 16 14 15 15 14 16 17
13 12 11 10 10 10 10 10 10 10 11 11 12 13 14 14 13 13 13 12 11 10 8 8 8 7 8 10 9 7 5 5 5 5 7 8 8 5 2 3 4 5 7 7 7 6 6 6 5 3 4 7 9 8 7 8 11 13 13 12 12 11 11 11 8 6 10 14 16 15 15 16 16 14 14 15 15 16 15 13 14 15 16 17 18
14 12 12 12 11 11 11 11 11 11 12 12 12 12 13 13 13 14 14 12 12 12 10 8 8 7 7 9 10 10 8 6 6 6 7 9 10 7 3 3 3 4 6 7 7 7 7 6 5 4 4 6 8 8 6 7 10 11 11 11 10 10 10 11 11 8 9 14 16 17 17 17 17 16 14 14 15 14 14 13 13 13 15 16 17
15 13 12 12 12 12 12 12 12 13 13 13 13 12 12 12 13 14 14 12 11 12 11 9 8 7 7 7 9 11 10 8 7 8 9 10 11 8 5 4 3 4 6 7 7 7 8 7 5 4 4 6 8 9 7 6 9 10 10 10 9 9 10 12 12 10 9 11 15 16 16 16 17 15 14 15 15 13 13 12 11 11 12 13 15
17 14 13 12 12 11 11 12 13 14 15 15 14 13 12 12 12 13 13 11 10 12 12 10 8 8 8 9 10 11 10 7 6 8 10 11 10 8 7 5 4 4 5 7 7 6 7 8 7 5 5 6 7 9 8 7 9 10 9 10 9 8 10 11 12 12 11 12 13 15 15 15 15 14 14 16 16 14 12 11 10 10 11 11 12
17 15 13 13 11 9 8 8 9 11 12 12 12 12 12 12 11 11 11 10 9 11 12 11 10 10 10 11 11 11 10 8 7 7 9 10 10 9 8 7 6 5 5 6 6 6 5 6 7 7 6 7 8 8 7 8 10 10 9 10 10 9 10 11 12 12 13 14 13 14 15 16 16 14 14 15 15 13 14 13 11 11 12 12 13
16 15 14 12 9 8 8 8 7 7 8 9 8 8 10 10 10 10 10 10 10 11 12 12 12 13 12 11 10 10 9 9 9 9 9 9 10 10 9 8 6 6 5 6 6 7 6 5 6 7 8 9 9 8 8 8 8 8 8 10 9 8 9 10 11 11 13 14 14 14 14 15 15 15 15 14 13 12 14 15 15 15 14 14 14
15 15 14 12 9 9 9 9 9 9 9 9 8 7 8 9 8 8 9 10 10 11 12 12 12 13 13 12 12 11 9 8 10 11 11 10 10 11 11 9 7 6 5 6 6 6 7 6 6 8 9 11 12 11 9 7 6 6 8 8 6 6 7 8 9 10 11 12 13 14 14 15 16 16 16 14 13 12 13 13 14 15 16 15 13
15 14 15 13 10 8 8 10 12 11 10 10 9 8 8 9 8 9 9 10 11 11 13 13 13 13 13 13 12 11 9 8 8 10 12 12 13 13 12 10 8 7 6 6 7 6 8 8 8 9 9 10 11 10 7 5 5 7 7 6 6 6 7 8 9 9 10 11 12 13 14 14 16 16 16 14 12 12 13 12 11 13 16 18 14
16 15 16 15 10 8 9 11 12 14 14 13 12 11 10 10 10 10 12 12 12 13 14 15 16 15 14 14 12 11 10 9 8 8 10 13 14 14 13 11 9 8 8 7 7 6 7 10 10 7 5 5 6 6 6 6 7 8 7 7 7 7 7 8 9 10 10 11 12 12 12 13 15 15 15 13 12 13 14 13 12 13 16 18 17
17 17 17 14 10 9 10 11 11 14 16 16 15 14 13 12 12 13 13 14 15 15 15 16 17 17 16 16 14 13 13 12 11 10 10 11 13 14 13 12 10 9 9 8 8 7 6 9 10 8 6 6 7 8 9 10 10 10 9 9 9 8 7 8 9 10 12 13 13 13 12 13 15 15 15 14 13 14 14 12 12 14 14 13 13
15 17 18 15 12 11 11 12 12 14 17 18 18 17 16 15 15 15 16 16 16 17 18 19 19 19 18 18 17 17 16 15 14 13 12 12 13 14 14 13 11 10 10 9 9 8 7 7 10 12 12 10 10 11 12 13 14 12 12 11 10 9 8 8 9 11 13 15 16 16 15 16 16 15 15 14 14 14 14 12 12 14 14 12 12
14 17 17 16 15 13 12 12 13 15 17 19 20 20 19 19 18 18 19 19 19 20 21 22 21 21 20 20 20 19 18 17 16 16 16 15 15 15 14 14 13 12 11 11 10 8 7 6 8 12 14 12 12 13 15 16 17 16 14 13 12 10 9 9 9 11 14 16 18 18 17 16 17 16 15 14 15 15 15 14 13 13 15 15 17
16 16 16 17 17 16 14 14 15 17 18 18 20 21 21 22 22 22 22 22 22 23 24 25 24 23 23 23 22 22 20 19 19 18 18 17 17 16 16 16 15 14 13 12 10 8 7 7 9 11 12 12 12 13 15 17 19 19 18 16 14 12 11 11 11 12 14 16 17 19 17 16 18 19 16 14 15 15 15 15 15 15 16 17 19
18 17 17 19 18 18 19 18 18 20 20 21 21 21 22 23 23 24 24 25 25 25 25 26 26 26 26 25 24 24 22 21 21 20 20 19 19 18 18 18 17 17 15 14 12 10 7 8 11 12 12 13 13 14 16 17 19 21 20 18 16 14 13 12 12 13 14 14 16 17 16 15 17 19 17 14 13 13 15 17 16 17 18 19 20
20 20 20 21 21 21 22 22 22 22 23 23 22 22 22 23 23 24 25 26 26 26 27 27 27 27 26 26 26 26 24 23 22 22 21 21 21 20 20 20 20 19 18 16 14 12 9 10 12 13 13 13 13 15 17 18 19 21 21 19 17 15 14 13 13 13 13 13 14 15 15 15 15 15 14 13 12 13 15 18 19 18 17 16 17
21 22 22 22 22 22 23 24 25 25 25 25 25 24 23 24 24 24 23 24 26 27 28 28 28 28 27 27 27 27 26 24 23 23 23 23 23 23 23 23 23 22 21 18 16 15 13 11 12 13 13 13 14 15 16 17 18 20 21 19 17 16 15 13 13 12 11 12 13 14 15 16 16 15 13 13 13 14 14 16 18 16 13 10 10
23 23 23 23 23 23 24 25 26 26 27 28 29 29 27 26 26 25 24 24 24 25 26 26 26 27 28 28 28 28 28 27 25 25 25 24 25 26 26 26 26 25 24 21 19 18 16 13 12 14 14 13 14 14 13 13 16 19 20 18 16 17 16 14 13 12 11 12 14 15 15 15 16 17 17 17 17 16 16 17 18 16 13 11 10
26 26 26 25 24 24 24 25 26 26 27 27 28 29 29 28 28 27 26 25 24 23 23 22 22 23 25 27 28 29 30 29 27 26 27 26 27 27 28 28 28 27 26 24 21 20 19 17 14 14 14 14 13 12 10 10 13 17 18 17 17 17 15 13 12 13 13 14 16 17 18 17 17 17 19 20 21 21 21 21 21 18 17 17 15
28 28 28 27 27 26 26 26 26 26 25 25 24 24 25 26 27 27 27 27 26 24 22 21 21 22 22 23 24 26 28 28 27 27 27 27 27 28 29 30 30 30 29 27 25 22 21 19 17 15 14 14 13 11 10 10 12 15 16 17 17 16 14 13 13 14 15 17 18 19 20 18 16 14 15 17 20 21 23 23 23 22 20 20 19
29 29 29 29 29 29 28 27 27 26 25 24 23 23 24 25 26 27 28 29 28 27 25 23 23 23 23 22 22 23 25 26 26 26 26 26 26 26 29 30 31 32 31 29 27 25 23 22 20 17 16 15 14 13 12 11 12 14 16 16 16 15 14 15 15 15 17 19 19 20 20 18 15 12 11 11 12 14 17 19 21 21 21 21 21
30 30 30 31 31 31 31 30 29 28 26 26 25 26 26 26 27 28 29 30 30 29 27 25 25 26 25 24 23 24 24 24 24 24 25 25 25 25 27 29 30 31 32 31 29 27 25 23 22 19 17 17 16 15 14 13 13 15 17 16 16 15 16 17 17 17 19 21 21 21 21 19 17 13 11 10 10 11 11 12 14 15 16 19 21
30 30 30 31 32 33 33 33 31 30 29 28 29 30 30 29 29 29 29 30 30 29 29 28 27 27 26 25 25 25 25 24 24 23 24 25 25 25 26 26 27 30 32 33 32 30 27 25 24 21 19 19 19 18 16 15 16 18 18 17 17 17 18 19 19 19 20 21 22 23 22 20 18 15 12 11 11 10 9 10 11 12 14 18 20
28 28 29 30 31 33 34 34 34 33 32 31 31 32 32 32 31 31 30 31 30 30 30 29 27 26 27 27 26 26 25 25 24 23 23 24 24 25 26 26 27 29 31 33 33 32 30 27 26 23 21 21 21 20 18 18 19 20 19 18 19 19 20 21 22 21 21 22 23 25 24 21 18 16 14 13 11 10 9 9 10 12 12 14 15
21 23 24 25 26 28 29 31 33 33 32 32 32 32 32 32 31 31 31 31 30 29 30 29 28 27 27 28 28 27 26 26 25 23 22 22 23 24 25 26 28 29 31 33 34 33 32 30 28 25 22 22 22 21 21 21 22 22 21 20 21 22 23 24 24 22 22 23 24 25 25 22 17 15 14 14 13 11 9 8 10 10 10 11 13
18 19 20 21 22 24 25 27 29 30 31 31 31 30 29 29 30 30 30 30 29 29 29 29 28 27 27 28 30 29 26 26 27 25 23 23 24 24 25 26 27 29 31 33 34 35 34 32 30 27 24 23 23 23 23 23 23 24 23 23 24 25 26 27 26 23 23 24 25 25 24 21 17 14 14 13 12 10 8 9 10 11 11 12 13
17 17 19 21 22 23 23 24 25 27 29 29 27 25 25 26 27 28 28 28 27 27 27 28 27 27 27 29 31 30 28 27 28 27 25 25 25 26 26 25 24 26 29 32 34 35 36 34 30 27 25 24 24 24 25 25 25 26 26 26 26 27 28 28 27 25 24 24 24 23 22 20 18 16 14 14 14 13 11 11 12 13 12 13 15
17 17 17 18 18 18 19 20 22 24 25 24 23 23 23 23 24 25 27 28 28 27 27 28 29 29 29 31 30 27 25 26 28 29 28 27 27 27 27 24 23 24 25 27 29 32 34 32 28 25 24 25 25 26 27 28 28 29 30 29 28 27 28 28 26 24 24 24 23 22 22 21 19 17 15 15 16 15 12 12 13 14 14 14 14
17 17 16 14 14 14 14 15 15 14 14 14 15 15 17 17 18 21 24 26 28 29 29 29 31 33 33 33 29 25 24 27 31 31 30 28 27 28 28 26 25 24 22 21 22 25 27 27 26 26 26 26 27 28 29 30 30 31 30 29 28 27 27 26 25 25 25 24 23 23 22 21 19 17 15 16 18 17 15 13 13 14 14 15 15
16 16 14 11 8 7 6 6 6 7 8 10 11 13 14 14 14 16 18 18 20 23 24 27 30 33 35 36 33 30 31 33 33 31 31 28 26 26 27 24 22 20 18 16 16 19 21 22 23 26 27 27 27 29 30 29 29 29 29 28 27 26 25 26 26 26 26 25 24 24 23 22 20 18 17 18 19 19 17 15 14 14 14 15 16
14 11 6 3 2 4 5 7 8 9 10 11 13 14 14 14 15 16 16 16 16 17 19 22 25 28 31 36 38 37 38 37 33 30 28 24 21 22 22 20 18 18 18 16 16 17 19 20 22 24 25 25 27 29 29 28 27 27 28 27 26 25 26 27 27 27 26 26 25 24 23 23 22 20 18 19 20 19 18 16 14 15 15 15 16
6 5 5 6 6 7 8 9 10 12 13 14 15 16 16 17 19 20 20 20 20 21 23 25 26 27 29 32 37 40 39 36 32 27 22 17 18 21 21 19 18 18 19 18 17 19 20 21 22 24 23 23 26 28 28 27 27 27 26 26 26 27 28 27 27 26 26 26 25 24 24 24 24 22 20 20 20 20 20 18 16 16 16 16 16
14 14 14 15 16 15 14 13 13 13 14 15 17 19 19 19 19 21 24 26 28 28 28 28 29 30 30 30 34 39 40 34 28 25 22 19 20 21 21 20 19 20 20 19 19 20 21 22 24 25 24 24 26 27 26 26 27 27 26 27 28 29 28 26 25 26 26 26 25 24 24 25 24 23 21 21 21 22 22 20 17 17 17 16 15
18 17 16 18 20 21 22 22 19 17 17 18 19 21 21 21 20 20 22 25 27 29 30 30 30 31 31 31 31 35 39 36 28 25 24 21 19 20 21 21 20 20 21 21 21 22 23 22 24 25 26 26 27 26 26 26 26 26 27 28 28 28 27 25 25 25 25 25 25 25 25 25 24 23 23 22 22 22 22 20 18 17 17 17 15
18 18 18 17 17 18 20 22 21 21 23 24 24 24 23 23 23 22 22 21 22 25 29 31 31 31 32 33 31 30 33 34 30 26 23 22 20 20 20 20 21 21 22 22 23 25 25 25 25 26 26 26 26 26 26 26 27 27 27 27 27 26 25 24 24 24 23 24 25 25 25 25 25 24 23 23 22 21 21 19 17 16 16 16 14
19 20 20 20 19 19 20 22 25 27 29 29 28 27 25 24 24 24 24 24 24 24 27 31 32 32 32 32 32 29 26 28 29 26 24 24 23 20 19 21 23 24 24 25 26 27 28 28 28 28 28 27 27 26 26 26 26 26 26 26 26 25 25 25 24 23 22 23 24 24 23 24 24 24 23 23 23 22 20 18 17 17 16 16 15
19 20 21 20 20 21 22 24 26 27 28 28 27 26 24 24 24 25 25 26 26 26 27 30 31 31 30 30 30 27 24 25 26 25 23 23 22 20 21 24 26 25 25 26 27 28 29 29 29 29 29 28 27 27 26 26 25 25 25 25 25 25 25 25 25 23 21 22 22 22 21 22 22 23 24 24 22 21 19 17 17 18 17 16 16
15 17 19 20 20 19 20 21 21 22 24 24 24 24 24 24 25 26 25 26 26 25 26 27 29 29 29 30 28 24 21 21 22 22 22 21 19 19 22 26 27 27 28 29 29 29 29 29 28 27 26 26 26 26 26 26 26 26 25 25 25 26 25 25 24 23 21 22 22 21 21 21 22 23 24 23 21 19 17 17 19 19 17 14 14
14 15 17 20 20 20 20 20 21 21 23 23 24 25 26 26 25 25 25 26 25 24 23 25 26 27 27 26 23 19 17 18 20 22 22 21 20 22 25 27 28 29 30 30 29 28 27 27 25 23 22 23 24 24 26 27 28 28 27 26 25 25 25 24 23 22 21 22 22 21 21 22 23 24 24 23 21 20 19 18 19 20 18 16 14
18 19 21 22 21 21 21 21 21 22 22 23 24 25 25 25 25 24 24 25 24 23 22 23 24 25 25 24 21 18 17 20 24 25 25 25 27 30 33 32 31 30 31 31 30 28 27 25 22 18 16 17 19 21 24 26 28 29 29 27 25 25 24 22 21 21 21 20 20 20 21 22 24 25 25 23 22 21 20 19 19 20 20 18 16
20 22 23 23 22 21 21 22 22 23 24 24 25 25 25 24 24 24 24 24 24 23 23 23 24 25 25 24 22 20 20 23 25 25 25 26 29 33 36 36 34 32 31 30 30 29 27 22 15 11 12 16 19 21 23 25 26 28 28 27 26 25 23 21 20 20 20 19 18 18 20 22 24 26 26 24 22 21 20 19 19 20 20 18 17
23 25 26 25 24 23 23 24 24 25 26 26 26 26 25 25 23 23 23 23 24 24 24 24 25 26 25 24 22 19 19 22 24 25 25 27 29 32 34 36 35 33 31 30 29 28 26 22 17 15 18 21 21 22 23 24 25 26 25 24 24 23 21 19 18 18 18 17 16 17 18 20 24 26 27 25 23 22 20 19 20 21 20 19 18
26 28 29 29 27 25 24 26 27 27 27 26 25 25 25 24 23 23 24 25 26 26 25 25 26 26 26 25 22 19 19 22 25 27 29 30 31 32 34 34 33 33 32 31 27 25 25 24 22 21 21 21 20 20 20 20 21 22 21 20 20 19 18 18 18 18 18 16 14 14 15 18 23 26 28 26 24 23 22 21 22 22 22 20 19
26 28 29 30 29 26 25 27 28 27 26 25 24 24 25 24 24 25 27 27 28 26 25 25 26 25 25 25 23 21 21 23 24 27 29 30 30 32 33 34 33 33 32 29 25 23 23 22 20 19 19 19 18 16 13 14 16 18 18 17 16 16 15 15 16 17 16 14 13 13 14 16 20 24 27 27 26 25 24 24 24 24 23 21 20
25 26 27 29 28 27 27 27 28 27 25 24 23 24 25 25 25 27 28 28 27 26 25 26 25 24 24 26 25 24 23 23 23 24 26 26 28 30 33 34 33 31 29 26 24 24 23 21 19 19 19 19 18 16 14 13 15 16 16 15 13 12 12 12 12 12 12 12 12 13 15 16 19 22 25 27 28 28 27 26 26 26 24 22 21
24 25 26 27 27 27 27 27 27 25 23 22 22 24 26 26 26 27 28 28 27 27 27 26 25 24 24 25 26 25 25 25 24 25 24 24 25 27 29 29 29 27 26 26 26 25 23 23 23 22 21 19 17 17 16 13 11 12 14 14 11 10 10 10 11 11 11 10 10 10 12 14 17 20 22 24 26 28 29 28 27 26 25 23 22
23 24 25 25 26 26 26 27 26 23 21 21 23 25 26 26 26 27 27 28 27 26 25 25 24 24 25 26 26 27 27 26 26 26 25 25 25 25 26 26 25 25 25 27 28 27 25 24 23 21 20 18 17 16 15 11 8 12 16 15 12 10 10 11 11 11 11 11 11 10 9 10 13 16 20 23 25 27 28 29 28 26 24 23 22
24 24 24 25 25 25 25 26 24 21 19 21 24 24 25 26 27 27 28 26 24 23 23 24 24 24 25 25 26 26 26 27 27 26 27 27 26 26 25 25 25 25 24 25 26 25 24 22 21 21 20 18 16 15 15 13 11 13 17 16 13 11 11 11 11 11 11 11 12 11 11 10 10 12 16 21 24 25 27 28 27 25 23 22 21
27 26 25 24 24 24 24 24 21 19 18 20 22 23 24 25 25 26 26 24 22 22 23 23 23 24 25 25 25 25 25 26 27 28 28 27 27 26 25 24 24 24 24 23 22 23 23 23 24 22 18 14 12 11 12 13 14 14 17 17 15 14 13 12 12 12 12 11 11 11 11 11 11 11 12 17 21 23 25 26 26 24 23 21 20
28 27 25 24 24 24 23 22 19 18 18 19 20 21 22 22 22 23 24 24 24 25 23 22 22 24 25 26 26 27 27 27 28 28 28 27 27 26 24 23 22 21 20 19 18 19 20 21 20 18 15 13 11 10 10 10 11 12 14 15 15 15 14 13 13 13 13 12 12 12 12 12 13 13 13 14 17 20 23 25 25 24 21 19 19
26 25 24 24 23 23 23 22 20 19 19 19 19 19 19 20 21 23 23 24 26 26 24 21 22 25 27 28 29 29 30 30 30 29 28 27 27 25 22 20 17 15 13 12 12 12 13 14 14 14 13 11 10 8 8 8 8 9 11 12 12 13 13 13 13 13 13 12 12 12 12 13 14 14 15 15 17 19 21 24 25 22 19 18 19
Wind_Direction
219 220 220 223 227 229 233 236 237 240 244 246 245 245 244 241 243 246 247 250 243 238 241 243 254 255 232 228 233 217 223 272 260 248 247 247 251 257 261 263 263 260 260 264 272 291 299 298 304 323 334 332 339 355 7 14 15 14 14 9 9 17 12 359 325 306 325 336 339 336 337 337 334 338 341 336 335 336 331 323 309 296 288 286 284
217 220 221 227 233 234 237 239 239 240 241 245 248 248 244 243 246 244 240 246 243 238 245 245 248 254 236 232 242 248 251 251 247 243 238 233 225 221 242 270 269 256 247 251 259 275 300 303 294 301 323 320 327 347 0 3 4 6 11 11 7 8 10 2 349 323 320 335 344 345 349 350 344 345 351 347 340 334 331 329 318 304 294 290 290
219 224 230 238 241 241 244 243 242 242 242 246 250 250 246 246 248 243 242 249 240 234 246 251 248 255 252 243 246 254 263 267 259 240 226 216 209 215 256 268 275 276 256 253 264 276 291 299 300 299 303 314 321 328 339 345 351 356 0 4 3 360 1 0 356 342 322 328 339 344 347 350 350 353 356 352 345 337 334 334 325 312 306 303 298
222 226 235 241 243 247 253 252 249 247 247 250 252 254 254 252 250 247 248 251 240 234 244 251 251 254 257 256 256 260 267 272 256 232 222 216 214 229 262 253 258 287 279 272 272 279 282 277 281 295 297 308 316 316 316 323 334 344 349 351 356 358 356 353 352 348 334 328 333 339 342 345 349 355 356 351 349 346 341 334 325 317 314 314 311
220 224 234 242 245 250 256 255 252 252 254 257 257 257 257 256 254 250 249 251 243 235 238 246 252 251 253 260 265 269 269 260 238 226 225 221 224 245 262 252 255 281 296 291 278 276 275 265 267 282 291 295 302 306 308 309 319 332 342 341 343 353 356 352 350 347 343 336 333 338 345 346 348 354 358 353 349 351 347 336 329 327 322 319 320
216 223 233 240 243 245 246 242 243 252 258 258 256 254 253 254 252 249 248 248 242 234 235 243 247 247 253 261 266 274 276 261 241 231 227 226 236 253 257 250 260 285 315 311 284 267 259 262 272 277 280 281 282 289 295 301 311 319 331 337 337 346 353 352 348 343 341 339 335 338 344 348 348 348 353 351 347 351 353 343 338 339 334 327 327
212 221 227 229 235 245 247 236 234 249 251 242 244 248 244 239 241 244 242 238 233 230 234 242 247 247 252 261 267 278 288 273 250 240 237 239 248 256 253 250 265 290 320 326 296 264 251 262 271 272 277 278 278 281 278 282 301 310 322 335 340 344 349 349 344 337 336 335 333 334 338 343 343 339 341 345 342 349 357 347 339 342 342 338 337
215 219 218 223 241 258 255 242 240 247 241 236 250 260 243 231 233 233 228 226 225 226 231 239 245 243 245 255 262 266 280 278 260 250 246 247 257 258 251 252 267 287 310 328 317 271 249 251 256 268 280 279 281 286 277 270 289 305 314 324 327 329 335 338 334 329 327 326 324 327 330 332 333 333 337 343 343 347 355 347 334 336 337 335 337
221 218 220 232 250 263 258 249 244 240 237 239 252 257 242 230 226 218 216 220 222 225 231 234 237 238 243 253 256 254 263 274 272 265 255 254 260 258 251 255 269 284 300 322 330 295 252 244 253 270 283 281 282 282 263 256 282 290 296 301 298 307 318 323 321 319 316 313 313 320 323 323 324 327 330 335 338 338 342 339 330 331 332 328 328
225 224 231 240 247 256 263 261 248 238 239 247 250 248 238 227 223 221 222 225 227 229 232 232 234 241 246 249 249 249 256 262 265 267 261 260 261 255 252 259 267 282 296 309 327 316 262 243 250 263 274 279 281 267 248 264 285 281 277 282 289 296 304 310 315 315 307 298 299 307 308 306 312 315 314 317 317 316 324 330 325 326 332 330 326
230 232 238 240 239 249 260 264 255 243 243 249 250 247 240 231 228 231 232 233 234 233 234 235 238 245 249 249 247 248 254 257 257 260 256 253 254 251 252 259 265 276 288 296 313 320 281 249 244 243 252 270 278 273 266 268 274 275 272 272 280 288 293 299 306 309 302 290 288 292 287 288 299 306 306 305 302 302 313 320 315 317 328 330 321
235 237 240 238 234 241 251 258 260 254 249 249 249 248 245 239 235 236 238 240 241 238 238 241 244 247 249 249 249 249 253 256 256 258 256 252 253 254 254 256 261 269 279 290 304 312 298 268 243 238 249 265 276 283 281 270 266 270 272 270 272 275 279 286 294 301 300 291 286 284 281 283 290 297 302 302 298 299 306 308 304 305 312 311 302
243 243 241 235 231 237 249 257 261 262 258 254 250 248 246 244 242 242 243 244 245 244 244 246 249 250 250 250 251 252 253 254 253 254 257 258 257 257 256 256 258 262 271 283 294 301 299 277 244 238 248 262 274 282 282 275 268 266 266 266 266 267 273 281 290 300 299 292 286 285 285 286 286 291 299 299 294 295 297 298 301 302 301 300 297
246 247 240 233 232 241 253 258 257 259 261 257 251 247 246 247 248 249 248 247 247 247 248 249 250 251 252 252 254 254 254 253 253 254 256 258 257 255 255 257 256 259 266 273 281 291 285 258 241 241 252 268 278 280 281 277 269 262 260 260 261 265 271 280 295 305 300 292 290 291 293 291 286 290 298 296 287 285 288 292 298 301 300 300 300
245 245 239 234 238 246 254 256 254 256 259 259 253 248 248 251 253 253 251 249 250 251 252 252 252 252 253 253 254 255 256 255 254 254 256 258 256 253 254 255 254 256 261 264 268 276 271 248 243 248 259 271 278 283 289 287 273 259 254 255 259 264 269 280 298 307 300 291 290 293 296 297 291 287 288 286 280 279 285 289 290 293 298 300 301
243 243 241 242 246 251 254 254 253 253 255 256 254 252 251 252 254 255 254 252 252 253 254 254 255 255 255 255 254 255 259 259 256 255 257 259 257 253 252 253 252 253 257 260 263 266 263 251 246 251 261 269 278 289 296 292 276 257 248 251 257 261 269 284 298 303 299 293 291 290 291 295 296 290 280 273 273 281 288 288 285 286 290 294 296
242 243 245 248 252 254 256 257 258 257 254 250 249 253 253 251 253 256 255 252 251 252 253 255 255 256 257 257 256 256 260 262 259 257 257 258 256 253 250 250 251 252 255 257 260 261 259 253 247 251 259 267 281 294 296 286 270 251 244 249 255 260 273 291 298 298 301 299 298 297 293 289 289 287 280 271 271 280 285 283 283 285 283 282 285
245 246 248 252 255 256 258 259 261 261 258 253 251 254 254 253 255 256 255 254 253 253 255 257 257 258 257 258 258 258 262 264 262 260 260 258 255 253 251 249 249 251 253 254 256 257 258 255 248 249 257 268 283 292 290 276 259 245 242 247 252 261 280 296 298 300 304 302 302 305 303 298 291 284 279 273 270 274 277 277 282 283 273 262 263
249 251 252 255 256 256 258 259 260 262 262 261 259 257 256 255 256 257 256 254 253 253 254 254 257 260 260 261 261 260 263 266 264 262 262 261 256 253 251 249 247 249 252 252 253 255 257 255 249 247 254 265 276 278 270 257 248 243 243 246 252 267 287 298 298 302 306 303 304 306 307 309 304 290 279 271 267 268 271 275 280 278 266 258 257
254 256 257 258 257 256 257 257 258 259 260 261 260 258 255 255 256 256 254 249 248 249 249 249 255 261 263 264 265 264 266 268 267 265 264 263 260 256 251 248 247 249 251 251 252 254 256 256 252 247 248 255 259 259 254 248 243 241 241 244 256 275 294 299 297 301 300 299 305 308 309 312 309 299 287 273 263 262 264 268 271 271 266 260 255
258 258 259 259 258 257 256 255 255 255 256 258 258 257 256 255 254 254 250 246 244 244 245 246 251 257 261 261 262 264 264 265 266 267 266 264 262 258 252 250 251 252 251 250 251 253 256 258 255 249 245 245 247 250 253 249 240 237 241 251 268 284 293 295 297 299 296 296 302 306 309 312 312 311 310 295 277 270 267 264 262 265 266 260 251
263 262 261 260 260 259 258 255 254 253 254 257 258 259 260 259 256 253 250 245 242 241 244 246 248 253 257 258 258 260 260 259 261 265 268 267 264 259 255 255 256 253 250 249 249 252 257 260 259 253 246 244 245 249 252 246 238 240 249 264 278 285 286 289 293 294 295 297 299 300 304 309 311 316 325 321 305 292 285 275 265 265 265 258 250
266 264 263 264 264 263 261 258 254 253 254 257 259 260 262 261 260 258 253 246 241 241 245 248 247 249 253 256 257 260 261 260 259 261 266 268 267 265 263 262 261 254 249 249 251 254 259 261 261 256 250 247 247 249 248 244 241 246 256 270 279 281 282 285 286 288 292 294 293 293 297 304 309 314 319 322 314 301 296 294 278 267 264 257 250
271 268 268 269 270 271 269 264 260 256 255 258 259 260 261 262 262 262 257 248 243 242 246 248 246 246 250 254 258 262 265 265 264 263 264 264 266 268 268 268 265 257 251 251 255 257 260 263 262 258 253 250 250 250 249 246 246 252 261 270 277 279 280 282 284 285 287 287 286 288 292 297 305 311 313 313 309 297 294 296 283 269 263 255 243
273 272 273 274 276 278 277 273 268 262 258 258 258 260 262 262 261 261 257 249 242 241 243 245 246 247 248 251 257 262 266 269 269 268 264 262 264 268 269 269 268 261 254 254 257 258 260 262 262 259 255 253 252 250 249 249 251 256 262 269 275 279 281 283 284 282 279 279 281 283 287 292 301 310 311 305 297 286 281 286 283 272 259 245 236
269 271 273 277 281 282 280 279 276 269 262 259 259 261 264 264 263 262 257 248 242 240 241 244 248 249 249 251 255 258 263 269 271 270 266 262 263 266 266 268 268 263 257 256 256 256 257 258 258 256 253 251 250 249 250 252 254 257 261 266 272 278 282 283 282 278 275 277 279 280 282 288 295 301 301 295 285 276 268 272 276 271 259 246 239
270 274 279 283 287 286 284 283 281 274 265 261 263 267 271 270 266 262 257 250 243 240 242 246 249 250 250 252 254 255 257 263 268 270 268 265 264 264 263 263 265 263 259 256 255 255 254 254 254 254 251 249 249 250 252 253 254 256 261 266 272 277 281 283 281 278 276 276 277 278 279 282 286 290 289 284 277 271 265 262 264 264 259 250 242
279 283 287 289 290 291 290 287 283 277 272 273 277 280 282 280 272 267 264 257 249 244 246 250 253 255 255 254 253 252 253 260 267 270 270 268 265 260 256 256 262 264 263 263 261 257 252 249 249 249 247 246 246 248 250 251 254 258 262 268 272 276 279 280 277 276 276 275 274 273 272 272 277 283 286 281 274 267 260 254 255 259 259 250 242
289 288 288 288 289 293 295 293 292 291 293 301 305 304 305 302 291 284 282 273 262 258 260 262 265 267 264 259 254 247 246 259 271 273 271 270 267 258 252 253 258 262 265 267 265 259 251 246 245 244 243 243 244 247 250 253 256 260 263 267 271 274 275 274 273 274 276 274 270 268 265 264 268 275 279 276 270 262 254 251 253 257 255 246 242
304 295 289 289 293 303 314 326 337 341 340 339 335 331 331 328 315 304 301 294 285 280 279 279 281 279 272 266 262 256 255 263 272 272 269 269 266 257 252 253 256 259 261 260 255 251 247 243 242 242 240 240 243 246 250 253 255 259 263 266 269 270 269 269 272 275 276 272 269 266 262 259 260 265 269 270 268 260 251 247 248 251 249 243 241
304 300 303 327 25 36 31 26 18 9 1 354 346 339 334 329 324 318 311 307 306 305 303 302 302 296 283 272 266 264 262 263 265 265 265 267 266 258 252 252 257 259 257 251 244 242 240 238 240 242 241 240 242 246 249 252 254 257 261 265 266 265 263 265 272 276 274 270 267 263 258 254 254 257 261 264 264 259 252 246 244 247 249 244 241
333 4 27 35 38 37 31 26 20 14 8 2 356 348 339 329 325 324 321 317 315 315 315 315 315 312 302 284 270 263 260 259 260 261 262 266 268 263 257 256 257 255 251 246 242 241 240 238 240 244 243 241 245 249 251 252 254 256 258 260 261 262 263 266 272 275 273 268 262 256 253 250 248 250 256 260 258 255 253 249 244 243 246 244 242
39 36 31 26 24 23 21 19 17 15 10 3 356 351 344 335 327 323 322 320 318 317 316 315 313 313 311 300 280 264 257 256 256 253 250 252 257 257 255 255 252 246 242 240 239 240 240 239 241 246 247 247 250 253 254 254 256 257 257 257 260 264 268 270 272 272 269 264 256 250 249 247 244 245 251 255 252 249 248 248 245 242 242 244 245
33 33 33 27 16 9 5 2 0 2 2 358 353 348 342 337 330 323 319 318 317 316 316 316 315 313 311 307 295 274 261 255 250 243 240 241 243 246 249 250 244 238 237 238 240 242 243 241 242 246 249 250 253 255 255 257 259 259 259 259 262 266 270 270 270 268 265 257 249 246 246 245 242 242 246 249 249 246 243 244 246 243 240 240 240
26 26 26 21 12 4 357 350 347 351 356 354 349 343 338 335 332 327 321 315 311 309 311 314 317 316 313 311 306 290 269 254 243 238 238 237 237 238 239 237 234 234 235 237 239 243 245 245 247 251 253 254 256 257 258 261 262 261 261 263 264 267 268 267 266 265 260 251 245 243 243 242 240 239 242 245 244 240 237 238 238 234 234 236 237
26 20 17 14 8 1 352 344 341 345 346 344 339 335 332 331 330 327 323 318 312 307 309 313 315 315 314 313 310 299 275 249 237 238 241 240 239 237 232 230 233 236 237 238 240 242 245 247 250 255 257 259 262 263 264 266 267 267 266 267 267 268 268 266 264 260 253 246 242 239 239 239 237 236 238 240 239 238 238 235 227 220 222 231 239
11 2 358 356 351 344 338 333 331 330 329 330 330 331 331 330 329 326 322 319 317 314 315 318 317 312 312 313 309 296 269 244 237 239 239 236 236 237 235 235 237 239 241 244 244 242 244 248 251 255 258 261 264 267 267 268 270 272 272 271 269 267 266 265 263 257 248 241 238 234 233 232 231 230 231 234 236 238 235 227 219 216 221 231 237
357 346 344 345 343 338 333 329 326 325 326 329 332 333 331 330 329 326 321 318 317 318 322 325 321 312 308 308 303 286 260 241 236 236 233 230 233 240 241 240 240 242 245 248 247 244 246 250 254 256 260 264 267 269 269 269 270 272 273 272 270 266 263 261 259 254 245 238 233 230 229 228 227 228 229 230 233 233 226 218 215 217 222 227 226
6 353 348 347 343 341 338 336 334 334 333 334 334 333 331 330 327 325 321 317 315 317 323 326 324 318 312 306 297 280 258 244 239 234 227 223 230 244 250 248 245 246 248 249 248 245 245 248 252 258 264 269 272 272 271 272 272 272 271 271 268 264 260 258 255 248 239 233 230 229 229 228 227 227 228 229 229 226 217 212 213 216 218 221 223
7 0 355 351 346 343 342 341 339 338 336 334 333 332 330 328 326 324 322 316 311 313 321 324 322 320 315 306 295 278 257 248 246 241 231 223 227 238 246 249 250 252 254 253 249 243 242 245 251 258 268 275 279 279 276 273 271 269 268 267 265 262 259 256 250 242 235 232 232 234 235 234 230 227 226 226 227 224 218 215 216 216 218 225 233
5 0 355 352 349 347 345 343 341 340 337 335 334 332 329 328 329 330 327 320 312 311 315 318 320 320 315 305 294 279 260 252 252 250 244 239 236 237 241 246 252 256 257 255 250 245 242 242 244 256 278 288 292 293 287 276 268 267 266 262 259 258 256 248 239 235 234 235 238 242 244 240 233 228 225 224 224 223 221 220 218 217 219 227 238
2 359 356 353 351 347 345 343 341 340 340 339 339 338 334 331 331 332 331 326 321 317 314 313 316 320 316 306 295 281 266 260 259 259 259 257 252 248 247 250 255 258 259 259 255 247 239 233 232 248 269 278 284 290 290 278 265 259 256 253 249 247 243 236 232 234 236 238 243 247 247 242 236 230 228 226 223 220 219 218 215 214 217 224 232
358 356 354 352 350 346 343 342 341 340 339 338 339 341 341 338 337 337 335 333 333 329 319 312 313 317 319 315 305 290 277 272 270 270 270 268 263 259 257 256 260 264 265 262 255 244 236 235 237 242 251 258 265 280 291 286 267 249 240 237 238 237 234 234 238 240 238 237 239 241 242 241 238 233 230 228 224 220 218 217 212 211 216 222 225
353 352 351 349 347 344 342 342 341 339 338 337 339 344 344 342 340 339 337 334 334 332 325 318 315 316 317 318 312 300 290 286 282 280 278 275 271 268 265 265 268 269 265 259 251 240 237 242 244 241 243 249 255 264 278 284 274 259 242 230 227 230 234 237 239 238 235 235 236 236 237 240 240 237 234 231 226 221 219 218 215 214 217 219 220
348 346 345 345 345 342 340 341 341 339 339 339 342 345 344 341 338 338 336 334 333 332 330 326 323 319 317 316 312 305 300 297 293 290 287 281 276 272 270 269 270 267 259 253 247 240 238 245 250 249 247 247 247 248 252 263 272 269 253 235 227 230 234 235 233 231 232 238 243 242 240 240 240 240 239 236 230 224 221 221 219 217 216 216 217
340 339 339 339 340 339 338 339 339 338 339 341 344 345 345 342 341 342 340 337 334 332 331 330 327 323 320 317 313 309 307 304 300 298 295 289 283 279 276 273 268 261 252 247 245 241 241 248 253 253 250 246 242 243 246 251 260 264 257 248 244 242 238 232 229 228 230 236 242 244 245 245 242 242 242 239 234 228 225 223 222 219 217 216 218
332 333 333 334 335 336 337 337 337 336 338 343 347 348 346 344 343 342 341 338 336 336 338 337 332 325 321 319 316 313 311 307 303 300 299 297 294 291 287 281 272 262 255 252 251 248 246 246 247 246 245 243 238 233 228 226 246 273 275 267 253 241 234 231 231 232 235 239 245 252 258 259 254 248 243 239 235 230 227 224 222 220 219 219 219
326 327 328 328 330 332 334 336 336 334 337 346 351 350 347 344 342 341 340 339 341 344 346 344 337 330 326 323 321 318 316 311 306 301 300 299 298 296 293 286 278 269 264 261 257 250 243 242 246 246 244 239 234 230 223 218 234 272 285 278 258 241 236 233 229 229 233 240 248 256 259 259 259 255 246 239 235 232 227 223 220 218 218 220 221
321 321 321 321 323 326 331 334 333 330 336 346 350 347 344 343 344 344 343 341 341 343 344 342 337 332 328 323 320 318 316 312 307 303 300 299 299 297 293 289 283 276 271 267 262 252 245 246 252 250 240 228 223 224 222 220 230 253 270 269 256 242 236 230 224 223 227 233 240 246 249 247 245 244 243 241 238 233 227 222 217 214 215 219 221
319 319 317 315 317 321 328 332 330 329 338 346 347 345 345 346 346 346 344 340 337 336 335 336 336 333 329 323 318 314 311 309 306 303 302 301 301 298 295 291 287 281 276 272 268 257 247 242 240 232 219 210 214 221 224 227 235 242 245 244 239 232 228 226 225 226 230 233 234 234 238 241 240 236 235 237 237 233 226 219 212 209 213 220 223
325 323 318 314 315 323 331 334 330 329 336 343 345 345 346 345 343 341 339 336 333 331 328 329 333 333 329 325 320 315 312 310 307 305 304 305 305 302 298 291 284 278 275 272 262 246 231 220 213 206 202 203 210 217 222 225 226 221 218 221 225 224 223 224 226 226 229 232 228 222 221 227 232 232 230 231 235 234 225 214 207 206 213 222 226
Height
802 802 802 802 802 802 803 803 803 803 804 804 804 804 805 805 806 807 807 808 809 809 810 810 811 811 810 810 810 810 809 809 809 809 809 809 809 808 808 807 807 806 806 806 805 805 804 803 803 802 802 802 801 800 799 798 798 797 796 795 794 794 793 792 792 790 788 787 786 784 783 781 780 779 777 776 775 774 773 773 773 772 772 771 771
801 801 801 801 801 801 802 802 802 802 803 803 803 803 803 804 804 805 806 806 807 807 808 809 809 809 809 809 809 808 808 808 807 807 807 808 807 807 807 806 806 805 805 805 804 804 803 802 802 802 801 801 800 799 799 798 797 796 795 794 794 793 793 792 791 790 788 786 785 784 783 781 779 778 777 776 774 774 773 772 772 772 771 771 771
799 800 800 800 800 800 801 801 801 801 801 801 802 802 802 802 803 803 804 804 805 806 806 807 807 808 808 808 808 807 807 807 806 806 806 806 806 806 805 805 805 804 804 803 803 803 802 802 801 801 800 800 799 799 798 797 797 796 795 794 793 792 792 791 791 790 788 786 785 783 782 781 779 778 777 776 775 774 772 772 771 770 770 770 769
798 799 799 799 799 799 799 800 800 800 800 800 800 801 801 801 801 802 802 802 803 804 805 805 806 806 806 806 806 806 806 805 805 805 804 804 805 804 804 804 803 803 803 803 802 802 801 801 801 800 799 799 798 798 797 797 796 795 794 793 793 792 791 791 790 789 788 786 785 783 782 781 779 778 777 776 775 774 772 771 770 769 769 768 768
797 798 798 798 798 798 798 798 799 799 799 799 799 800 800 800 800 800 801 801 802 802 803 804 804 804 804 804 804 804 804 804 803 803 803 803 803 803 803 802 802 802 802 801 801 800 800 800 799 799 799 798 797 797 796 796 795 794 794 793 792 791 790 790 789 788 787 786 784 783 782 780 779 778 777 776 774 773 772 771 770 769 768 767 766
796 796 797 797 797 797 797 797 797 798 798 798 798 799 798 799 799 799 799 800 800 801 801 802 802 803 803 803 803 802 802 802 802 802 802 801 802 802 801 801 801 801 800 800 799 799 799 798 798 798 797 797 796 796 795 794 794 793 793 792 791 790 790 789 788 787 786 785 784 782 781 780 779 777 777 776 775 773 772 770 769 769 767 766 765
794 795 796 796 796 796 796 796 796 796 797 797 797 797 797 797 797 797 798 798 798 799 799 800 800 800 801 801 801 801 801 801 801 800 800 800 800 800 800 799 799 799 799 798 798 797 797 797 797 796 796 796 795 794 794 793 793 792 792 791 790 790 789 788 787 786 784 783 782 782 781 780 779 777 776 776 775 774 772 770 768 767 767 765 764
793 794 794 794 795 795 794 795 795 795 795 795 796 795 795 796 796 796 796 796 797 797 797 798 798 798 799 799 799 799 799 799 799 798 798 798 798 798 798 798 798 797 797 796 796 796 796 795 795 795 795 794 794 793 793 792 792 791 791 790 790 789 788 787 785 785 784 782 781 780 780 779 778 777 776 775 774 773 773 771 769 767 766 765 764
792 793 793 793 793 793 794 794 794 794 794 794 794 794 794 794 794 794 794 794 795 795 795 795 796 796 796 797 797 797 797 796 796 796 796 796 796 796 796 796 796 796 795 795 794 794 794 794 794 794 793 792 792 792 791 791 791 790 790 789 789 788 787 786 785 784 783 781 780 779 778 778 777 776 775 775 774 773 773 772 770 768 767 765 764
792 792 792 792 792 792 792 793 793 793 793 793 793 793 793 793 793 793 793 793 793 793 793 793 793 794 794 794 795 794 794 794 794 794 794 794 795 795 795 795 794 794 793 793 793 792 792 792 792 792 792 791 791 791 790 790 789 789 788 788 787 787 786 785 784 783 782 781 779 778 777 776 776 775 775 774 774 773 772 772 770 769 767 765 763
790 790 790 790 791 791 791 791 791 792 791 791 791 791 792 792 792 792 792 791 791 791 791 791 791 791 791 792 792 792 792 792 792 792 792 792 792 792 792 792 792 792 792 791 791 791 790 791 791 791 790 790 790 790 789 789 788 787 787 786 786 785 785 784 783 782 781 780 778 777 776 775 774 774 774 773 773 772 772 771 770 769 767 766 763
788 788 788 789 789 789 790 790 790 790 789 789 789 789 790 790 790 790 790 789 789 789 789 789 789 789 789 789 789 789 789 790 790 790 790 790 790 790 790 790 790 790 789 789 789 789 789 789 789 789 789 789 789 789 788 787 786 786 785 785 784 784 783 783 782 781 780 778 777 776 775 773 772 772 772 771 771 771 770 770 769 768 767 766 765
786 786 786 787 787 787 788 788 788 788 787 787 787 787 788 788 787 787 787 787 787 787 787 787 786 787 786 786 786 786 787 787 787 787 787 787 787 787 788 788 788 787 787 787 787 787 787 787 787 787 787 787 787 787 786 786 785 785 784 784 783 782 782 781 780 779 778 777 776 774 773 773 771 770 771 770 770 769 769 768 768 767 767 765 764
784 784 784 785 785 785 786 786 785 785 785 785 785 785 785 785 785 785 785 785 785 784 784 784 784 784 784 784 783 783 784 784 784 784 784 784 785 785 785 785 785 785 785 785 785 785 785 785 785 785 785 785 785 785 784 784 783 783 783 782 782 781 780 779 779 778 777 776 774 772 772 771 770 769 769 769 768 768 767 766 766 765 765 764 762
782 782 782 782 783 783 783 783 783 783 783 783 782 782 782 782 782 782 782 782 782 782 781 781 781 781 781 781 781 781 781 781 782 782 782 782 782 782 782 783 783 783 783 783 782 782 782 783 783 783 783 783 782 782 782 781 781 781 781 780 780 779 779 778 777 776 775 774 772 771 770 769 768 767 767 767 766 766 765 765 764 763 763 761 760
779 779 779 779 780 780 780 780 780 780 780 780 780 779 779 779 779 779 779 779 779 779 779 779 778 778 778 778 778 778 778 778 779 779 779 779 779 780 780 780 780 780 780 780 780 780 780 780 780 780 780 780 780 779 779 779 778 778 778 778 778 778 777 777 776 774 773 772 770 769 768 767 766 765 765 764 764 764 764 763 762 762 761 760 758
776 776 776 776 776 776 777 777 776 776 776 776 776 776 776 776 776 776 776 776 776 776 775 775 775 775 775 775 775 774 774 775 775 775 776 776 776 776 776 776 776 776 777 777 777 778 778 778 777 777 777 777 777 777 777 776 775 775 776 776 776 776 775 775 774 772 771 770 768 767 766 766 765 764 763 763 762 762 762 761 760 760 760 758 757
773 773 772 772 773 773 773 773 772 772 772 772 772 772 772 773 773 773 773 773 772 772 772 771 771 771 771 771 771 771 770 771 772 772 772 773 773 773 773 773 773 773 773 774 774 775 775 775 775 775 774 774 774 774 774 773 773 773 774 774 774 773 773 772 771 770 769 768 767 766 765 764 763 762 761 760 760 760 759 758 758 758 758 757 756
769 769 769 769 769 769 769 769 769 769 768 768 768 768 769 769 769 769 769 769 769 769 769 768 768 767 767 768 768 768 767 767 768 769 769 769 769 769 770 770 769 769 770 770 771 771 772 772 772 772 772 772 772 772 771 771 771 771 772 772 772 771 770 770 769 767 766 765 764 763 762 761 760 759 758 758 757 757 756 756 756 756 755 755 754
765 765 765 765 765 766 765 765 765 765 765 764 764 764 765 765 765 765 765 765 765 765 765 765 764 764 764 764 764 764 764 763 764 765 765 766 766 766 766 766 766 766 766 767 767 767 768 769 769 769 769 769 769 769 769 769 769 769 770 770 769 768 768 767 767 765 764 763 761 760 759 758 757 756 755 754 754 753 753 753 753 753 753 753 753
762 762 762 762 762 762 761 762 762 761 761 761 761 761 761 761 761 761 760 761 761 761 761 760 760 760 760 760 760 760 760 760 760 761 761 762 762 763 763 762 762 762 763 763 763 764 764 765 765 766 766 766 766 767 767 767 767 767 767 767 767 767 766 765 764 763 762 761 759 758 757 756 755 753 752 751 751 750 750 750 750 750 750 750 750
759 759 759 759 759 758 758 758 758 758 758 758 757 757 757 757 757 757 757 757 757 757 756 756 756 756 756 756 756 756 756 757 757 757 757 757 758 759 758 758 758 759 759 759 759 760 761 761 761 762 763 763 763 764 764 764 765 765 764 764 765 765 764 763 762 761 760 759 757 756 755 754 753 751 750 749 749 748 747 747 747 748 748 747 748
757 756 756 756 755 755 754 754 754 754 755 755 754 754 753 754 753 753 753 753 753 753 753 752 753 753 752 752 752 752 752 752 753 754 753 753 754 754 754 754 755 755 755 755 755 756 757 757 758 759 760 760 760 761 761 762 762 762 762 762 762 762 762 761 760 759 758 757 755 753 752 751 751 749 748 747 747 746 745 745 745 745 745 745 745
754 754 753 753 752 752 751 750 750 751 751 751 751 751 750 750 750 750 750 749 749 749 749 749 749 749 749 748 748 748 748 748 749 750 750 750 750 750 750 750 751 752 752 752 752 753 753 754 755 756 757 757 757 758 758 759 759 759 759 760 760 760 759 758 757 757 756 755 753 751 749 749 748 747 746 745 745 744 744 744 743 743 743 743 744
751 751 750 750 749 748 747 747 747 747 747 748 748 747 747 747 747 746 746 745 745 745 745 746 746 746 745 745 744 744 745 744 745 745 746 746 746 746 746 747 747 747 748 748 748 749 750 751 752 753 754 754 754 755 755 755 755 756 756 757 757 756 756 755 754 754 753 752 750 749 747 746 746 746 745 744 743 742 742 742 742 742 742 742 742
749 748 747 746 745 745 744 744 743 743 744 744 744 744 744 744 744 744 743 742 742 742 742 742 742 742 742 741 740 740 741 741 741 741 742 742 742 742 742 742 743 743 743 744 745 746 746 747 748 749 750 751 751 752 752 752 752 752 753 753 753 753 752 752 751 751 750 749 747 746 745 744 744 744 743 742 742 741 741 741 741 741 741 741 741
746 746 745 744 743 743 742 741 741 741 741 741 741 742 742 742 741 741 740 740 740 739 739 740 739 739 738 737 736 736 737 737 737 737 738 739 738 738 738 738 739 739 739 739 740 741 742 744 745 746 747 748 748 748 748 748 749 749 749 749 749 749 749 748 748 747 746 745 744 743 743 742 742 741 741 741 740 740 740 740 740 740 740 740 740
744 744 743 742 742 741 740 740 739 739 739 739 740 740 739 739 739 738 737 737 737 737 737 736 736 735 734 733 732 732 733 733 732 732 733 734 734 734 734 734 734 734 734 735 736 736 738 740 741 743 744 744 744 745 745 745 745 745 745 745 746 745 745 744 744 743 742 742 741 741 740 740 740 739 739 739 738 738 738 738 738 738 739 739 739
742 741 741 740 740 739 739 739 738 738 738 738 738 738 737 737 736 735 735 735 735 735 735 734 733 732 730 729 729 729 729 728 727 728 729 730 730 730 730 730 730 730 731 731 732 733 734 735 737 738 739 740 740 740 740 740 740 740 741 741 741 742 741 740 740 739 739 739 738 738 738 738 737 737 737 736 736 736 736 736 736 736 737 737 737
741 740 739 739 738 738 738 738 737 737 737 736 736 736 735 735 735 734 734 734 734 734 733 732 731 729 727 726 725 725 724 723 723 724 725 725 726 726 727 727 727 728 729 729 729 729 730 731 732 733 734 735 735 735 736 736 736 736 736 737 737 737 737 737 736 736 735 735 735 734 735 735 735 735 735 734 733 733 734 734 734 734 734 735 735
740 740 738 738 737 737 737 737 736 736 736 735 735 734 734 734 734 734 733 733 732 732 731 729 728 726 725 723 721 720 719 718 719 721 722 723 724 725 725 725 726 726 727 727 726 726 726 727 728 729 730 731 731 731 731 732 732 732 732 732 733 733 733 733 732 732 732 731 731 731 732 732 732 732 732 732 732 732 732 732 732 732 732 732 733
740 740 739 739 738 737 737 736 735 735 734 733 733 733 733 733 732 731 731 730 729 729 727 726 724 723 721 719 718 716 715 715 716 719 720 722 723 724 724 723 723 724 725 724 723 723 723 724 725 725 726 726 726 726 727 727 728 728 728 728 728 728 729 729 729 729 728 728 728 728 728 729 729 729 729 730 730 730 730 730 730 730 730 731 731
741 741 740 740 739 739 738 737 735 733 733 732 732 732 732 731 730 729 728 727 726 725 724 723 721 719 717 716 714 713 712 712 713 715 717 718 719 721 721 721 721 721 722 721 720 720 720 721 721 721 722 722 722 722 723 723 724 724 724 724 724 724 724 725 725 725 725 724 724 725 725 725 726 726 727 727 727 728 728 728 728 729 729 729 729
742 742 741 740 741 742 741 740 738 736 733 732 732 731 730 730 729 728 727 725 723 721 720 718 717 716 714 712 710 709 709 709 710 711 712 712 713 715 717 717 717 718 718 717 717 716 717 717 718 718 718 719 719 719 720 720 720 720 720 720 720 720 720 721 721 721 721 721 721 721 722 722 723 724 724 725 725 726 726 726 727 727 727 727 728
744 743 742 741 741 741 742 743 742 738 734 732 731 730 729 728 727 726 725 724 722 720 717 715 714 712 710 708 706 705 705 706 707 707 708 709 709 710 712 713 714 714 714 714 713 713 714 714 714 714 715 715 715 716 716 716 716 716 716 716 716 716 717 717 717 717 717 717 718 718 719 719 720 721 722 722 723 723 724 724 724 725 725 726 726
745 745 743 742 742 742 742 743 741 738 734 732 731 730 728 726 725 724 723 721 720 718 715 713 711 709 708 705 703 702 702 703 704 705 706 706 706 706 708 709 710 710 710 710 710 710 711 711 711 711 711 712 712 712 712 712 712 712 712 713 713 713 713 714 714 714 714 714 714 715 716 716 717 718 719 719 720 720 721 721 722 722 722 723 724
747 746 745 743 743 742 742 741 739 737 735 733 731 729 727 725 723 722 720 719 717 715 713 710 708 707 705 703 702 700 700 701 702 703 703 704 703 703 704 705 706 706 706 706 706 707 707 707 708 708 708 708 708 709 709 709 708 708 708 709 709 709 710 710 710 710 710 710 711 712 712 713 714 715 716 716 717 718 719 720 720 720 720 721 722
748 747 746 745 743 742 741 739 737 736 734 731 730 728 725 723 722 720 718 717 715 713 711 709 707 706 704 702 701 699 699 700 700 700 700 700 700 701 701 702 702 702 702 702 702 703 703 703 704 704 705 705 705 706 706 705 705 705 705 705 706 706 706 706 707 707 707 707 708 709 709 710 711 712 713 713 714 715 717 718 718 718 719 720 721
747 747 746 744 742 740 739 737 735 734 732 730 728 726 724 722 720 718 717 715 714 712 710 708 707 705 703 701 700 700 699 699 698 697 697 697 698 699 699 699 698 698 698 698 699 699 699 700 701 701 702 702 702 702 702 702 702 701 701 701 702 702 702 703 703 704 704 704 705 706 706 707 708 708 709 711 712 713 714 715 715 716 717 718 718
747 746 745 743 741 739 737 735 734 732 731 729 727 724 723 721 719 717 716 714 713 711 709 707 705 703 702 700 699 698 697 696 695 694 694 694 695 695 695 694 694 694 694 694 694 695 696 697 697 698 698 698 698 698 697 697 697 697 697 697 698 698 698 699 700 700 701 702 702 703 704 704 705 706 707 708 709 710 711 711 712 713 714 716 716
746 745 743 741 739 737 735 734 732 731 729 727 725 723 722 720 718 717 715 714 712 710 708 706 704 702 700 699 697 696 695 693 692 692 693 692 692 691 690 690 690 690 690 690 690 691 692 693 693 694 694 694 694 693 693 692 692 692 693 693 693 694 695 696 697 698 698 699 700 700 701 701 702 703 704 705 706 707 708 709 710 711 712 713 714
745 743 741 739 737 736 734 732 731 729 727 725 724 722 721 719 718 716 715 713 711 709 706 704 703 701 699 697 696 695 694 693 692 691 691 690 690 689 688 687 687 687 686 686 685 686 687 687 688 689 689 690 690 690 689 688 687 688 688 689 689 690 691 692 693 694 695 696 697 698 698 698 699 700 701 702 703 705 706 706 707 708 709 710 712
744 742 740 738 736 734 732 731 729 728 726 724 723 722 720 718 717 715 714 712 709 707 705 703 701 700 698 696 695 694 693 692 690 689 688 687 687 686 685 685 684 684 683 682 682 683 683 683 683 684 684 685 686 686 685 685 684 684 684 685 686 687 688 689 690 692 692 694 694 695 695 695 696 697 698 700 701 702 703 704 705 706 707 708 709
742 741 739 737 735 733 732 730 728 727 726 724 723 721 719 718 716 714 712 710 708 706 704 702 700 698 696 694 693 692 690 689 688 686 685 684 684 683 682 682 682 681 680 680 681 681 681 680 681 681 681 681 682 683 684 684 683 682 682 682 682 684 685 686 687 689 690 691 692 692 693 693 693 694 696 697 698 700 700 701 702 703 704 705 706
741 740 738 736 734 733 731 729 728 726 725 723 722 720 719 717 716 713 711 709 707 705 703 700 698 696 694 692 691 689 688 686 685 684 683 682 681 680 679 679 679 678 678 679 679 680 679 679 680 680 679 679 679 679 681 683 683 682 681 681 680 681 682 684 685 686 687 688 689 690 690 691 691 692 693 694 695 696 697 698 699 700 702 703 704
740 739 737 735 734 732 730 728 727 725 724 723 721 719 718 716 715 713 711 708 706 703 701 699 697 695 693 691 689 688 686 685 683 681 680 679 678 677 676 675 675 674 674 675 676 677 677 678 677 677 677 677 676 677 678 679 680 681 681 680 679 679 680 682 683 684 684 686 686 687 688 688 688 689 690 691 692 693 694 695 697 698 699 700 701
739 737 736 734 732 731 729 727 726 724 723 722 720 718 717 715 713 712 709 707 705 702 700 697 696 694 692 690 688 686 684 683 681 679 677 676 674 673 673 672 672 671 671 672 673 674 674 675 674 674 674 674 674 674 674 675 677 679 679 678 678 678 679 680 681 681 682 683 684 685 685 686 686 687 687 688 689 690 691 692 694 695 697 698 699
737 736 734 733 731 729 728 726 725 724 722 720 718 717 716 714 712 710 708 706 704 702 699 697 695 693 691 689 687 684 682 680 678 676 675 673 671 670 669 669 668 668 668 668 669 670 670 671 671 672 672 672 672 672 672 672 675 677 677 677 677 678 678 679 679 679 680 681 682 682 683 683 684 685 685 686 686 687 688 689 691 693 695 696 697
736 734 732 731 729 728 726 725 724 722 721 719 717 716 714 713 711 709 707 705 703 701 699 697 694 692 690 688 685 683 680 678 676 674 672 671 669 668 666 666 665 665 665 665 665 666 667 668 668 669 670 670 670 670 670 671 673 676 676 676 676 677 677 678 677 677 678 679 680 680 681 681 682 683 683 683 684 685 686 687 689 691 693 694 696
733 731 730 728 727 726 724 723 722 721 719 717 715 714 712 711 710 708 706 704 702 700 698 696 693 691 689 686 683 681 678 676 673 671 670 668 667 665 664 664 663 662 662 662 662 663 664 665 666 667 668 668 668 668 669 670 671 673 674 674 675 675 675 675 675 675 676 677 677 678 679 679 680 681 681 682 682 682 683 685 687 689 690 692 694
730 728 727 726 725 724 723 721 720 719 717 715 713 712 710 709 708 706 705 703 701 698 696 694 692 689 687 684 681 679 676 673 671 669 667 666 664 663 662 661 660 660 660 660 660 661 663 664 665 665 666 666 666 667 668 669 670 671 672 673 673 673 673 673 673 673 674 674 675 675 676 677 678 679 679 680 680 680 681 683 685 686 688 690 692